Date String (YYYY-MM-DD hh:mm:ss) UTC,Instrument flags,Ambient pressure (hPa),Sample flow (lpm),Bypass flow (lpm),Sample temperature (°C),Ambient temperature (°C),ASC tube jacket temperature (°C),LED temperature (°C),Box temperature (°C),Sample RH (%),Span deviation,Mass concentration (μg/m³),Mass concentration (μg/m³),Mass concentration (μg/m³)
DateTimeUTC,F1_M11,P_M11,Q1_M11,Q2_M11,T1_M11,T2_M11,T3_M11,T4_M11,T5_M11,U1_M11,ZSPAN_M11,X2_M11,X0_M11,X1_M11
2022-12-22 23:00:00,,0829.3,5.03,0.00,21.0,19.1,00.0,29.9,22.2,02.7,0002.1,0006.79,0011.76,0006.09
2022-12-22 23:01:00,,0829.4,5.02,0.00,20.8,18.6,00.0,29.9,22.0,02.8,0002.2,0006.73,0011.75,0006.05
2022-12-22 23:02:00,,0829.5,4.97,0.00,20.8,19.4,00.0,29.8,22.2,02.8,0002.5,0006.73,0011.75,0006.06
2022-12-22 23:03:00,,0829.4,5.00,0.00,20.9,20.6,00.0,29.8,22.6,02.8,0002.9,0006.69,0011.65,0006.06
2022-12-22 23:04:00,,0829.5,4.99,0.00,21.1,21.3,00.0,29.8,22.8,02.7,0003.1,0006.68,0011.46,0006.06
2022-12-22 23:05:00,,0829.5,4.99,0.00,21.0,20.5,00.0,29.8,22.6,02.7,0003.0,0006.71,0011.29,0006.06
2022-12-22 23:06:00,,0829.5,5.04,0.00,21.0,19.7,00.0,29.8,22.4,02.7,0003.2,0006.74,0011.35,0006.06
2022-12-22 23:07:00,,0829.3,4.97,0.00,20.8,18.9,00.0,29.8,22.1,02.8,0003.1,0006.74,0011.40,0006.05
2022-12-22 23:08:00,,0829.3,4.99,0.00,20.7,18.9,00.0,29.8,22.0,02.8,0002.9,0006.78,0011.48,0006.07
2022-12-22 23:09:00,,0829.4,5.04,0.00,20.8,20.2,00.0,29.7,22.4,02.8,0002.6,0006.80,0011.56,0006.09
2022-12-22 23:10:00,,0829.5,4.96,0.00,21.0,21.2,00.0,29.7,22.7,02.7,0002.4,0006.78,0011.52,0006.09
2022-12-22 23:11:00,,0829.5,5.03,0.00,21.1,21.6,00.0,29.7,22.8,02.7,0002.5,0006.82,0011.37,0006.09
2022-12-22 23:12:00,,0829.3,4.95,0.00,21.1,20.7,00.0,29.8,22.7,02.7,0002.5,0006.85,0011.27,0006.09
2022-12-22 23:13:00,,0829.3,5.05,0.00,21.0,19.7,00.0,29.8,22.4,02.7,0002.3,0006.80,0011.19,0006.04
2022-12-22 23:14:00,,0829.3,5.01,0.00,20.8,18.8,00.0,29.8,22.1,02.7,0002.1,0006.79,0011.16,0006.03
2022-12-22 23:15:00,,0829.3,4.96,0.00,20.8,19.0,00.0,29.8,22.0,02.7,0002.2,0006.76,0011.07,0006.02
2022-12-22 23:16:00,,0829.4,5.02,0.00,20.9,20.2,00.0,29.7,22.4,02.7,0002.6,0006.71,0010.98,0005.99
2022-12-22 23:17:00,,0829.5,4.97,0.00,21.0,21.1,00.0,29.7,22.7,02.7,0002.7,0006.66,0010.94,0005.96
2022-12-22 23:18:00,,0829.5,5.04,0.00,21.1,21.7,00.0,29.7,22.9,02.6,0002.7,0006.64,0010.97,0005.95
2022-12-22 23:19:00,,0829.5,4.96,0.00,21.1,21.1,00.0,29.8,22.8,02.6,0002.8,0006.63,0010.90,0005.97
2022-12-22 23:20:00,,0829.3,5.04,0.00,21.0,20.0,00.0,29.8,22.5,02.6,0003.2,0006.65,0011.08,0005.97
2022-12-22 23:21:00,,0829.4,5.01,0.00,20.9,19.0,00.0,29.8,22.1,02.6,0003.5,0006.66,0011.59,0005.97
2022-12-22 23:22:00,,0829.5,4.97,0.00,20.7,18.3,00.0,29.8,21.8,02.7,0003.6,0006.62,0011.61,0005.97
2022-12-22 23:23:00,,0829.6,5.00,0.00,20.7,19.4,00.0,29.7,22.1,02.7,0003.6,0006.57,0011.33,0005.95
2022-12-22 23:24:00,,0829.7,5.03,0.00,20.9,20.5,00.0,29.7,22.4,02.7,0003.6,0006.58,0011.35,0005.96
2022-12-22 23:25:00,,0829.9,4.97,0.00,21.0,21.2,00.0,29.7,22.7,02.6,0003.2,0006.58,0011.45,0005.96
2022-12-22 23:26:00,,0829.5,5.04,0.00,21.1,21.3,00.0,29.7,22.8,02.6,0003.1,0006.58,0011.47,0005.97
2022-12-22 23:27:00,,0829.5,4.95,0.00,21.0,20.2,00.0,29.8,22.5,02.6,0002.7,0006.60,0011.49,0005.99
2022-12-22 23:28:00,,0829.6,5.01,0.00,20.8,19.1,00.0,29.8,22.1,02.6,0002.3,0006.63,0011.47,0006.03
2022-12-22 23:29:00,,0829.6,5.03,0.00,20.7,18.6,00.0,29.7,21.9,02.7,0002.4,0006.67,0011.41,0006.07
2022-12-22 23:30:00,,0829.7,4.97,0.00,20.7,19.6,00.0,29.7,22.1,02.7,0002.6,0006.71,0011.60,0006.09
2022-12-22 23:31:00,,0829.9,5.02,0.00,20.9,20.7,00.0,29.6,22.5,02.7,0002.7,0006.71,0011.94,0006.11
2022-12-22 23:32:00,,0829.7,4.97,0.00,21.0,21.4,00.0,29.6,22.7,02.6,0003.0,0006.73,0012.11,0006.13
2022-12-22 23:33:00,,0829.5,5.04,0.00,21.1,21.5,00.0,29.7,22.8,02.6,0002.4,0006.73,0012.15,0006.13
2022-12-22 23:34:00,,0829.5,4.95,0.00,21.0,20.4,00.0,29.8,22.5,02.6,0002.6,0006.74,0012.22,0006.14
2022-12-22 23:35:00,,0829.6,5.03,0.00,20.9,19.2,00.0,29.8,22.1,02.6,0002.8,0006.74,0012.26,0006.16
2022-12-22 23:36:00,,0829.6,5.00,0.00,20.7,18.8,00.0,29.7,21.9,02.6,0003.3,0006.75,0012.19,0006.18
2022-12-22 23:37:00,,0829.6,4.96,0.00,20.8,19.7,00.0,29.7,22.2,02.6,0002.9,0006.77,0012.52,0006.18
2022-12-22 23:38:00,,0829.6,5.02,0.00,20.9,20.7,00.0,29.6,22.5,02.6,0002.8,0006.77,0012.69,0006.17
2022-12-22 23:39:00,,0829.6,4.97,0.00,21.0,21.4,00.0,29.6,22.7,02.6,0002.7,0006.74,0013.17,0006.16
2022-12-22 23:40:00,,0829.5,5.02,0.00,21.1,21.4,00.0,29.7,22.8,02.6,0002.7,0006.69,0013.17,0006.12
2022-12-22 23:41:00,,0829.6,4.97,0.00,21.0,20.5,00.0,29.8,22.6,02.6,0002.5,0006.61,0013.03,0006.07
2022-12-22 23:42:00,,0829.8,5.00,0.00,20.9,19.6,00.0,29.8,22.3,02.6,0002.1,0006.58,0012.50,0006.04
2022-12-22 23:43:00,,0829.7,5.03,0.00,20.8,19.1,00.0,29.8,22.1,02.6,0001.9,0006.60,0011.83,0006.04
2022-12-22 23:44:00,,0829.8,4.98,0.00,20.9,20.1,00.0,29.7,22.4,02.6,0001.9,0006.64,0011.61,0006.06
2022-12-22 23:45:00,,0829.7,4.99,0.00,21.0,21.0,00.0,29.7,22.7,02.6,0001.6,0006.63,0011.54,0006.04
2022-12-22 23:46:00,,0829.7,4.99,0.00,21.1,21.5,00.0,29.7,22.9,02.5,0001.2,0006.53,0011.39,0005.95
2022-12-22 23:47:00,,0829.5,5.01,0.00,21.1,20.7,00.0,29.8,22.7,02.5,0001.1,0006.43,0011.21,0005.87
2022-12-22 23:48:00,,0829.6,5.03,0.00,21.0,19.8,00.0,29.8,22.4,02.5,0001.5,0006.37,0011.41,0005.80
2022-12-22 23:49:00,,0829.8,4.95,0.00,20.9,18.9,00.0,29.8,22.1,02.5,0001.4,0006.29,0011.29,0005.71
2022-12-22 23:50:00,,0829.7,5.03,0.00,20.8,19.6,00.0,29.7,22.2,02.5,0001.2,0006.20,0010.68,0005.62
2022-12-22 23:51:00,,0829.7,5.00,0.00,20.9,20.5,00.0,29.7,22.5,02.5,0001.3,0006.07,0010.43,0005.50
2022-12-22 23:52:00,,0829.8,4.99,0.00,21.1,21.2,00.0,29.7,22.8,02.5,0001.0,0005.93,0010.17,0005.38
2022-12-22 23:53:00,,0829.8,4.97,0.00,21.2,21.6,00.0,29.7,22.9,02.5,0001.5,0005.81,0010.12,0005.27
2022-12-22 23:54:00,,0829.9,5.03,0.00,21.1,20.6,00.0,29.8,22.7,02.4,0001.3,0005.65,0009.99,0005.12
2022-12-22 23:55:00,,0829.8,5.03,0.00,21.0,19.5,00.0,29.8,22.3,02.4,0001.0,0005.50,0009.80,0004.99
2022-12-22 23:56:00,,0829.8,4.96,0.00,20.8,18.8,00.0,29.8,22.0,02.5,0000.7,0005.40,0009.67,0004.89
2022-12-22 23:57:00,,0829.8,5.01,0.00,20.8,19.5,00.0,29.7,22.1,02.5,0000.7,0005.34,0009.60,0004.82
2022-12-22 23:58:00,,0829.9,5.02,0.00,20.9,20.5,00.0,29.7,22.5,02.4,0000.3,0005.28,0009.52,0004.75
2022-12-22 23:59:00,,0829.8,4.97,0.00,21.0,21.2,00.0,29.7,22.7,02.4,0000.3,0005.14,0008.86,0004.66
